Location: Unspecified
(0.0000°N, 0.0000°E)
Time: 06:36:28
(UTC+00:00)

deb Explorer IX - Pass Details

Date: 27 November 2019
Orbit: 546 x 1104 km, 38.8° (Epoch: 11 December)

Event Time Altitude Azimuth Distance (km) Brightness Sun altitude
Rises 06:29:18 0° 300° (WNW) 3,072 ? 9.8°
Reaches altitude 10° 06:31:56 10° 294° (WNW) 2,069 ? 10.4°
Maximum altitude 06:36:25 43° 222° (SW) 845 ? 11.4°
Drops below altitude 10° 06:40:27 10° 150° (SSE) 1,859 ? 12.3°
Sets 06:42:42 0° 143° (SE) 2,723 ? 12.9°
